Regional Weather Roundup
Issued by NWS Newport/Morehead, NC

Current Version | Previous Version | Graphics & Text | Print | Product List | Glossary On
Versions: 1 2 3 4 5 6 7 8 9 10 11 12 13 14 15 16 17 18 19 20 21 22 23 24 25 26 27 28 29 30 31 32 33 34 35 36 37 38 39 40 41 42 43 44 45 46 47 48 49 50
000 ASUS42 KMHX 011413 RWRMHX WEATHER ROUNDUP FOR EASTERN NORTH CAROLINA NATIONAL WEATHER SERVICE NEWPORT/MOREHEAD CITY NC 1000 AM EDT WED JUL 01 2015 NOTE: "FAIR" INDICATES FEW OR NO CLOUDS BELOW 12,000 FEET WITH NO SIGNIFICANT WEATHER AND/OR OBSTRUCTIONS TO VISIBILITY NCZ015>017-031-032-045>047-102-103-011500- NORTH COAST CITY SKY/WX TMP DP RH WIND PRES REMARKS EDENTON MOSUNNY 78 69 74 W8 29.95S ELIZABETH CITY MOSUNNY 79 69 71 W9 29.93S KITTY HAWK SUNNY 82 68 62 SW10 29.93R MANTEO SUNNY 80 68 67 W9 29.94S $$ NCZ045>047-081-094-103-104-011500- CENTRAL COAST CITY SKY/WX TMP DP RH WIND PRES REMARKS FRISCO SUNNY 79 70 74 W15 29.96R SWANQUARTER N/A 79 N/A N/A SW10G16 29.91S $$ NCZ095-097-098-100-101-011500- SOUTHERN COAST CITY SKY/WX TMP DP RH WIND PRES REMARKS BEAUFORT SUNNY 80 72 76 W13 29.98R CEDAR ISLAND N/A 81 N/A N/A SW12G17 30.00S JACKSONVILLE MOSUNNY 77 68 73 W6 29.98F PINEY ISLAND MOSUNNY N/A N/A N/A SW13 29.97R WILMINGTON PTSUNNY 78 70 76 SW7 29.99S $$ NCZ011>013-027>030-043-044-078>080-089-090>093-098-011500- COASTAL PLAIN CITY SKY/WX TMP DP RH WIND PRES REMARKS AHOSKIE SUNNY 74 69 83 CALM 29.95S CLINTON CLOUDY 74 71 92 CALM 29.99S ELIZABETHTOWN CLOUDY 73 71 92 SW5 30.00R GOLDSBORO PTSUNNY 75 70 83 VRB6 29.96R GREENVILLE SUNNY 77 70 78 W6 29.98S HAVELOCK MOSUNNY 80 69 69 W8G21 29.99R KENANSVILLE CLOUDY 73 68 83 SW6 30.00S KINSTON NOT AVBL NEW BERN CLOUDY 76 69 79 W8 29.99S RICHLANDS CLOUDY 75 64 69 W7 30.00R ROCKY MOUNT SUNNY 78 69 73 SW7 29.96S WASHINGTON SUNNY 76 69 77 SW7 29.97S WHITEVILLE CLOUDY 73 69 86 SW3 30.00S $$ AMZ130-135-150-152-154-156-158-170-250-252-270-ANZ085-086-088-633-658-670-011500- MARINE OBSERVATIONS STATION/POSITION TIME TEMP WIND PRES WAVE SWELL AIR SEA DIR/SP/G HT/PER HT/PER (UTC) (F) (DEG/KT/KT) (MB) (FT/S) (FT/S) CHESAPEAKE LIGHT 1400 75 240/ 15/ 15 1013.2 64 E VA BEACH 1350 78 76 220/ 12/ 14 1012.8 5/ 6 5/ 6 DUCK 1300 77 59 240/ 13/ 17 1012.7 2 E DUCK 1311 65 N/A 2/ 7 OREGON INLET 1300 79 81 220/ 16/ 19 1013.5 13E OREGON INLT 1400 73 N/A 4/ 8 HATTERAS CG 1300 79 81 230/ 12/ 19 1014.0 DIAMOND BUOY 1350 81 82 240/ 19/ 21 1014.3 5/ 6 2/13 CAPE LOOKOUT 1400 80 240/ 12/ 15 1015.0 BEAUFORT LAB 1300 79 80 240/ 6/ 15 1014.4 30 SE NEW RVR IN 1308 80 81 260/ 16/ 21 1016.0 27 SE WRIGHTSVLE 1300 80 250/ 17/ 19 N/A 5 SE WRIGHTSVLE NOT AVBL 225 S CAPE HAT 1350 81 80 240/ 16/ 19 1019.1 7/ 7 2/12 41 SE CHARLESTON 1350 79 82 240/ 17/ 21 1016.2 5/ 5 2/ 8 $$

USA.gov is the U.S. government's official web portal to all federal, state and local government web resources and services.